Météo par heure à Dzialki

Ce jour, 17 Janvier, Dimanche

Heure Température Précipitation Vent Pression Humidité
00:00 -11°C° 0.4 mm 5 m/s 739 mmHg 94%
01:00 -11°C° 0.4 mm 4 m/s 739 mmHg 93%
02:00 -14°C° 0 mm 4 m/s 739 mmHg 94%
03:00 -14°C° 0 mm 3 m/s 739 mmHg 95%
04:00 -16°C° 0 mm 3 m/s 739 mmHg 96%
05:00 -17°C° 0 mm 3 m/s 739 mmHg 96%
06:00 -17°C° 0 mm 2 m/s 740 mmHg 97%
07:00 -17°C° 0 mm 2 m/s 740 mmHg 97%
08:00 -17°C° 0 mm 2 m/s 741 mmHg 95%
09:00 -16°C° 0 mm 2 m/s 741 mmHg 93%
10:00 -14°C° 0 mm 1 m/s 742 mmHg 90%
11:00 -13°C° 0 mm 1 m/s 742 mmHg 89%
12:00 -13°C° 0 mm 1 m/s 742 mmHg 87%
13:00 -12°C° 0 mm 1 m/s 743 mmHg 86%
14:00 -12°C° 0 mm 1 m/s 743 mmHg 88%
15:00 -13°C° 0 mm 1 m/s 743 mmHg 90%
16:00 -13°C° 0 mm 1 m/s 743 mmHg 92%
17:00 -14°C° 0 mm 1 m/s 743 mmHg 93%
18:00 -14°C° 0 mm 1 m/s 744 mmHg 95%
19:00 -15°C° 0 mm 1 m/s 744 mmHg 96%
20:00 -15°C° 0 mm 1 m/s 744 mmHg 95%
21:00 -16°C° 0 mm 1 m/s 745 mmHg 95%
22:00 -16°C° 0 mm 1 m/s 745 mmHg 95%
23:00 -16°C° 0 mm 1 m/s 745 mmHg 95%

Demain, 18 Janvier, Lundi

Heure Température Précipitation Vent Pression Humidité
00:00 -16°C° 0 mm 1 m/s 745 mmHg 95%
01:00 -16°C° 0 mm 1 m/s 745 mmHg 95%
02:00 -16°C° 0 mm 1 m/s 745 mmHg 94%
03:00 -16°C° 0 mm 1 m/s 744 mmHg 94%
04:00 -16°C° 0 mm 1 m/s 744 mmHg 93%
05:00 -16°C° 0 mm 1 m/s 744 mmHg 93%
06:00 -16°C° 0 mm 1 m/s 745 mmHg 93%
07:00 -16°C° 0 mm 1 m/s 745 mmHg 92%
08:00 -14°C° 0 mm 1 m/s 745 mmHg 91%
09:00 -15°C° 0 mm 2 m/s 745 mmHg 89%
10:00 -14°C° 0 mm 2 m/s 745 mmHg 88%
11:00 -12°C° 0 mm 2 m/s 744 mmHg 85%
12:00 -10°C° 0 mm 2 m/s 744 mmHg 83%
13:00 -8°C° 0 mm 2 m/s 744 mmHg 81%
14:00 -9°C° 0 mm 2 m/s 744 mmHg 83%
15:00 -9°C° 0 mm 2 m/s 744 mmHg 86%
16:00 -9°C° 0 mm 2 m/s 743 mmHg 88%
17:00 -9°C° 0 mm 2 m/s 743 mmHg 88%
18:00 -9°C° 0 mm 2 m/s 743 mmHg 89%
19:00 -9°C° 0 mm 2 m/s 743 mmHg 89%
20:00 -10°C° 0.1 mm 3 m/s 743 mmHg 91%
21:00 -9°C° 0.1 mm 3 m/s 743 mmHg 93%
22:00 -8°C° 0.1 mm 3 m/s 743 mmHg 95%
23:00 -8°C° 0.3 mm 4 m/s 743 mmHg 95%

Après-demain, 19 Janvier, Mardi

Heure Température Précipitation Vent Pression Humidité
00:00 -8°C° 0.3 mm 4 m/s 742 mmHg 95%
01:00 -7°C° 0.3 mm 4 m/s 742 mmHg 95%
02:00 -5°C° 0.3 mm 4 m/s 742 mmHg 96%
03:00 -5°C° 0.3 mm 4 m/s 741 mmHg 96%
04:00 -4°C° 0.3 mm 4 m/s 741 mmHg 96%
05:00 -4°C° 0.2 mm 4 m/s 741 mmHg 96%
06:00 -4°C° 0.2 mm 4 m/s 741 mmHg 97%
07:00 -3°C° 0.2 mm 4 m/s 741 mmHg 97%
08:00 -3°C° 0.3 mm 4 m/s 740 mmHg 97%
09:00 -4°C° 0.3 mm 5 m/s 740 mmHg 97%
10:00 -2°C° 0.3 mm 5 m/s 740 mmHg 97%
11:00 -2°C° 0.1 mm 5 m/s 739 mmHg 96%
12:00 -2°C° 0.1 mm 5 m/s 739 mmHg 96%
13:00 -2°C° 0.1 mm 5 m/s 738 mmHg 95%
14:00 -2°C° 0.2 mm 5 m/s 738 mmHg 96%
15:00 -2°C° 0.2 mm 5 m/s 738 mmHg 96%
16:00 -2°C° 0.2 mm 5 m/s 737 mmHg 96%
17:00 -3°C° 0.2 mm 6 m/s 737 mmHg 96%
18:00 -3°C° 0.2 mm 6 m/s 737 mmHg 96%
19:00 -3°C° 0.2 mm 6 m/s 737 mmHg 95%
20:00 -3°C° 0.2 mm 6 m/s 737 mmHg 95%
21:00 -3°C° 0.2 mm 6 m/s 736 mmHg 96%
22:00 -3°C° 0.2 mm 6 m/s 736 mmHg 96%
23:00 -2°C° 0.5 mm 5 m/s 736 mmHg 97%

20 Janvier, Mercredi

Heure Température Précipitation Vent Pression Humidité
00:00 -1°C° 0.5 mm 5 m/s 736 mmHg 97%
01:00 -1°C° 0.5 mm 5 m/s 736 mmHg 98%
02:00 -1°C° 0.3 mm 5 m/s 736 mmHg 98%
03:00 -1°C° 0.3 mm 4 m/s 736 mmHg 98%
04:00 0°C° 0.3 mm 4 m/s 736 mmHg 97%
05:00 0°C° 0 mm 4 m/s 736 mmHg 95%
06:00 -1°C° 0 mm 5 m/s 736 mmHg 93%
07:00 -1°C° 0 mm 5 m/s 736 mmHg 90%
08:00 -1°C° 0 mm 5 m/s 736 mmHg 92%
09:00 0°C° 0 mm 5 m/s 736 mmHg 93%
10:00 0°C° 0 mm 5 m/s 736 mmHg 95%
11:00 0°C° 0 mm 5 m/s 736 mmHg 94%
12:00 0°C° 0 mm 5 m/s 736 mmHg 93%
13:00 -1°C° 0 mm 6 m/s 736 mmHg 93%
14:00 0°C° 0 mm 5 m/s 736 mmHg 88%
15:00 0°C° 0 mm 5 m/s 736 mmHg 84%
16:00 0°C° 0 mm 5 m/s 736 mmHg 80%
17:00 0°C° 0 mm 5 m/s 736 mmHg 78%
18:00 0°C° 0 mm 5 m/s 736 mmHg 77%
19:00 -1°C° 0 mm 5 m/s 736 mmHg 76%
20:00 -1°C° 0 mm 5 m/s 736 mmHg 76%
21:00 -1°C° 0 mm 5 m/s 736 mmHg 75%
22:00 -1°C° 0 mm 5 m/s 735 mmHg 75%
23:00 -1°C° 0 mm 5 m/s 735 mmHg 78%

21 Janvier, Jeudi

Heure Température Précipitation Vent Pression Humidité
00:00 -2°C° 0 mm 6 m/s 735 mmHg 81%
01:00 -2°C° 0 mm 6 m/s 735 mmHg 84%
02:00 -1°C° 0 mm 5 m/s 734 mmHg 86%
03:00 -1°C° 0 mm 5 m/s 734 mmHg 87%
04:00 -1°C° 0 mm 5 m/s 734 mmHg 88%
05:00 -1°C° 0 mm 4 m/s 733 mmHg 88%
06:00 -2°C° 0 mm 4 m/s 733 mmHg 88%
07:00 -2°C° 0 mm 4 m/s 732 mmHg 88%
08:00 -1°C° 0 mm 4 m/s 732 mmHg 90%
09:00 0°C° 0 mm 4 m/s 732 mmHg 92%
10:00 0°C° 0 mm 4 m/s 731 mmHg 94%
11:00 0°C° 0 mm 4 m/s 731 mmHg 96%
12:00 0°C° 0 mm 4 m/s 730 mmHg 97%
13:00 +1°C° 0 mm 4 m/s 730 mmHg 98%
14:00 0°C° 0 mm 4 m/s 730 mmHg 96%
15:00 0°C° 0 mm 4 m/s 730 mmHg 94%
16:00 0°C° 0 mm 5 m/s 730 mmHg 92%
17:00 0°C° 0 mm 5 m/s 731 mmHg 90%
18:00 -1°C° 0 mm 5 m/s 731 mmHg 88%
19:00 -1°C° 0 mm 5 m/s 732 mmHg 86%
20:00 -1°C° 0 mm 5 m/s 732 mmHg 85%
21:00 -1°C° 0 mm 5 m/s 733 mmHg 84%
22:00 -1°C° 0 mm 5 m/s 733 mmHg 84%
23:00 -1°C° 0 mm 5 m/s 733 mmHg 83%

22 Janvier, Vendredi

Heure Température Précipitation Vent Pression Humidité
00:00 -1°C° 0 mm 4 m/s 733 mmHg 83%
01:00 -1°C° 0 mm 4 m/s 733 mmHg 82%
02:00 0°C° 0 mm 4 m/s 733 mmHg 83%
03:00 0°C° 0 mm 4 m/s 733 mmHg 83%
04:00 0°C° 0 mm 4 m/s 733 mmHg 83%
05:00 0°C° 0 mm 4 m/s 732 mmHg 85%
06:00 0°C° 0 mm 4 m/s 732 mmHg 87%
07:00 -1°C° 0 mm 4 m/s 731 mmHg 89%
08:00 0°C° 0 mm 4 m/s 731 mmHg 92%
09:00 0°C° 0 mm 4 m/s 731 mmHg 94%
10:00 0°C° 0 mm 4 m/s 730 mmHg 97%
11:00 +1°C° 0 mm 3 m/s 730 mmHg 98%
12:00 +2°C° 0 mm 3 m/s 729 mmHg 99%
13:00 +2°C° 0 mm 3 m/s 729 mmHg 99%
14:00 +2°C° 0.1 mm 3 m/s 728 mmHg 99%
15:00 +2°C° 0.1 mm 3 m/s 728 mmHg 99%
16:00 +1°C° 0.1 mm 3 m/s 728 mmHg 98%
17:00 +1°C° 0.7 mm 3 m/s 727 mmHg 99%
18:00 +2°C° 0.7 mm 2 m/s 727 mmHg 99%
19:00 +2°C° 0.7 mm 2 m/s 727 mmHg 99%
20:00 +2°C° 0.3 mm 2 m/s 727 mmHg 99%
21:00 +2°C° 0.3 mm 2 m/s 727 mmHg 99%
22:00 +3°C° 0.3 mm 1 m/s 727 mmHg 99%
23:00 +3°C° 0.1 mm 1 m/s 727 mmHg 99%
Voir plus

Nous avons besoin de votre consentement

Meteoprog et ses fournisseurs de services peuvent stocker et accéder à des données personnelles telles que des cookies, des identifiants d'appareils ou d'autres technologies similaires sur votre appareil et traiter ces données pour personnaliser le contenu et les publicités, ainsi que pour fournir des fonctionnalités de médias sociaux et analyser le trafic.

  • Stocker et/ou accéder à des informations sur votre appareil

    Des cookies, des identifiants d'appareils ou d'autres informations peuvent être stockés ou accessibles sur votre appareil aux fins indiquées ci-dessus.

  • Annonces et contenus personnalisés, mesure des annonces et des contenus, connaissance de l'audience et développement de produits

    Les annonces et le contenu peuvent être personnalisés en fonction d'un profil. D'autres données peuvent être ajoutées pour mieux personnaliser les annonces et le contenu. Les performances des publicités et du contenu peuvent être mesurées. Il est possible d'obtenir des informations sur le public qui a vu les publicités et le contenu. Ces données peuvent être utilisées pour développer ou améliorer l'expérience de l'utilisateur, les systèmes et les logiciels.

En cliquant sur "J'accepte", vous autorisez l'utilisation de cookies, des identifiants d'appareils, des balises web ou d'autres technologies similaires. Vos paramètres peuvent être modifiés dans le navigateur de votre appareil.

Dans certains cas, des intérêts légitimes peuvent être invoqués plutôt qu'un consentement. Vous pouvez en savoir plus à ce sujet dans notre Politique de confidentialité et de cookies.